Simultaneous Nadir Overpasses (SNOs) Predictions

Prediction of SNOs between AQUA and GOES-15 Satellite Orbit:

Table of predicted SNOs for the next 14.0 days since TLE Epoch: 12/30/2011
Index Date Time (AQUA) AQUA Lat,Lon GOES-15 Lat,Lon Distance(km) Time Diff (sec)
1 12/30/2011 10:43:44 0.44,-137.10 -0.05,-134.79 263.15 80
2 01/01/2012 10:31:35 -0.21,-134.16 -0.04,-134.80 73.76 80
3 01/03/2012 10:19:25 -0.81,-131.20 -0.04,-134.81 410.16 80
4 01/03/2012 22:40:49 -0.33,-136.39 0.04,-134.77 184.17 80
5 01/05/2012 22:28:39 0.31,-133.43 0.04,-134.77 151.57 80
6 01/06/2012 10:49:54 0.78,-138.59 -0.04,-134.80 431.68 80
7 01/07/2012 22:16:29 0.96,-130.49 0.03,-134.76 486.68 80
8 01/08/2012 10:37:44 0.13,-135.64 -0.03,-134.79 96.63 80
9 01/10/2012 10:25:33 -0.49,-132.69 -0.03,-134.77 237.93 80
10 01/10/2012 22:46:57 -0.63,-137.87 0.03,-134.74 356.15 80
11 01/12/2012 22:34:46 0.02,-134.92 0.03,-134.72 22.38 80




NCC Satellite Simultaneous Nadir Overpasses (SNOs) Prediction Service
